{"data":{"norad_id":64856,"epoch":"2026-05-25T03:00:21.256128Z","epoch_age_seconds":60193,"freshness":"FRESH","line1":"1 64856U 25152Q   26145.12524602  .00004982  00000+0  34899-3 0  9992","line2":"2 64856  97.4493   0.5499 0002667  84.2428 275.9103 15.05656817 46925","mean_motion":15.05656817,"eccentricity":0.0002667,"inclination_deg":97.4493,"raan_deg":0.5499,"arg_perigee_deg":84.2428,"mean_anomaly_deg":275.9103,"bstar":0.00034899,"rev_number":4692,"period_min":95.639323897804,"perigee_km":547.64264546047,"apogee_km":551.33784183223,"semimajor_km":6927.6272436464,"source":"CELESTRAK","updated_at":"2026-05-25T13:38:20.615096Z"}}